TURKSAT 4B

Last updated on Jan. 27, 2020, 4:38 a.m. UTC

1 40984U 15060A   20026.85826559  .00000109  00000-0  00000-0 0  9995
2 40984   0.0465 262.1575 0001726  37.2406 185.1515  1.00269942 15722
UTC
Height (km)
Latitude
Longitude
Inclination
Orbital Period
UTC large
Height (km)
Speed (km/s)
/
Latitude / Longitude
Inclination (degrees)
Orbital Period (minutes)
Azimuth
Elevation
Range (km)
Doppler Factor
iOS Compass Heading
iOS Angle

Next 30 passes for location: Hong Kong

Rise time Rise Azimuth (degrees) Set time Set Azimuth (degrees) Duration Max altitude (degrees)

No matching passes for this satellites